CW8164 Weather Reports


Display with metric or nautical units.
time (UTC)temp
F
wind
direction
speed
MPH
gust
MPH
rain 1hr
in
rain 24hr
in
rain mn
in
humidity
%
barometer
mb
20181015192907 63 338 2.0 3.0 0.00 0.45 0.00 39 1025.2
20181015191905 62 134 1.0 3.0 0.00 0.45 0.00 37 1025.3
20181015191405 62 226 2.0 3.0 0.00 0.45 0.00 37 1025.4
20181015190405 61 108 1.0 3.0 0.00 0.45 0.00 38 1025.5
20181015185405 60 306 1.0 3.0 0.00 0.45 0.00 38 1025.6
20181015184905 60 230 1.0 3.0 0.00 0.45 0.00 40 1025.6
20181015184405 60 280 1.0 3.0 0.00 0.45 0.00 38 1025.7
20181015183405 60 15 1.0 3.0 0.00 0.45 0.00 41 1025.7
20181015182405 60 204 2.0 3.0 0.00 0.45 0.00 40 1025.8
20181015181905 59 267 1.0 3.0 0.00 0.45 0.00 43 1025.8
20181015181405 59 303 1.0 3.0 0.00 0.45 0.00 40 1025.7
20181015180905 58 226 1.0 3.0 0.00 0.45 0.00 41 1025.7
20181015175405 57 192 2.0 3.0 0.00 0.45 0.00 42 1025.8
20181015174905 57 347 0.0 3.0 0.00 0.45 0.00 41 1025.9
20181015173905 57 297 1.0 3.0 0.00 0.45 0.00 42 1025.9
20181015171905 54 185 1.0 3.0 0.00 0.45 0.00 48 1026.0
20181015170405 52 153 1.0 2.0 0.00 0.45 0.00 64 1026.1
20181015165905 51 42 0.0 0.0 0.00 0.45 0.00 64 1026.1
20181015164905 49 42 0.0 0.0 0.00 0.45 0.00 73 1026.1
20181015164404 47 42 0.0 0.0 0.00 0.45 0.00 73 1026.1
20181015163905 46 42 0.0 0.0 0.00 0.45 0.00 78 1026.1
20181015163405 45 42 0.0 0.0 0.00 0.45 0.00 81 1026.1
20181015161905 41 42 0.0 1.0 0.00 0.45 0.00 85 1026.0
20181015161405 41 42 0.0 2.0 0.00 0.45 0.00 86 1026.0
20181015160905 40 42 1.0 2.0 0.00 0.45 0.00 87 1026.0
20181015155905 39 42 0.0 2.0 0.00 0.45 0.00 88 1025.9
20181015155405 38 42 0.0 2.0 0.00 0.45 0.00 89 1026.0
20181015154405 37 42 1.0 2.0 0.00 0.45 0.00 90 1025.8
20181015153405 36 41 0.0 0.0 0.00 0.45 0.00 89 1025.7
20181015152905 36 41 0.0 0.0 0.00 0.45 0.00 90 1025.6
20181015151904 35 41 0.0 0.0 0.00 0.45 0.00 90 1025.6
20181015151405 34 41 0.0 0.0 0.00 0.45 0.00 90 1025.5
20181015150905 34 41 0.0 0.0 0.00 0.45 0.00 91 1025.5
20181015150405 34 41 0.0 0.0 0.00 0.45 0.00 90 1025.4
20181015145405 34 41 0.0 0.0 0.00 0.45 0.00 89 1025.4
20181015144405 33 41 0.0 0.0 0.00 0.45 0.00 89 1025.5
20181015142404 34 41 0.0 0.0 0.00 0.45 0.00 88 1025.5
20181015141404 34 41 0.0 0.0 0.00 0.45 0.00 88 1025.5
20181015135905 34 41 0.0 0.0 0.00 0.45 0.00 88 1025.4
20181015135405 34 41 0.0 0.0 0.00 0.45 0.00 86 1025.5
20181015133905 34 41 0.0 0.0 0.00 0.45 0.00 87 1025.5
20181015133405 34 41 0.0 0.0 0.00 0.45 0.00 88 1025.5
20181015132905 34 41 0.0 0.0 0.00 0.45 0.00 88 1025.5
20181015131905 34 41 0.0 0.0 0.00 0.45 0.00 88 1025.5
20181015131405 34 41 0.0 0.0 0.00 0.45 0.00 88 1025.6
20181015130405 34 41 0.0 2.0 0.00 0.45 0.00 87 1025.5
20181015125904 35 41 1.0 3.0 0.00 0.45 0.00 87 1025.6
20181015122405 35 40 1.0 2.0 0.00 0.45 0.00 87 1025.6
20181015121905 35 40 1.0 2.0 0.00 0.45 0.00 86 1025.6
20181015121404 35 40 0.0 0.0 0.00 0.45 0.00 86 1025.6
20181015120905 35 40 0.0 2.0 0.00 0.45 0.00 85 1025.5
20181015114905 36 40 0.0 2.0 0.00 0.45 0.00 85 1025.3
20181015114405 36 40 0.0 3.0 0.00 0.45 0.00 85 1025.4
20181015113406 36 40 0.0 2.0 0.00 0.45 0.00 84 1025.4
20181015112405 35 40 1.0 3.0 0.00 0.45 0.00 84 1025.3
20181015111905 35 57 1.0 3.0 0.00 0.45 0.00 86 1025.3
20181015111405 35 65 0.0 2.0 0.00 0.45 0.00 84 1025.4
20181015110904 35 65 1.0 2.0 0.00 0.45 0.00 85 1025.4
20181015110405 35 65 1.0 2.0 0.00 0.45 0.00 85 1025.4
20181015105905 36 65 0.0 2.0 0.00 0.45 0.00 84 1025.4
20181015105404 36 65 0.0 3.0 0.00 0.45 0.00 84 1025.4
20181015104904 36 65 0.0 3.0 0.00 0.45 0.00 83 1025.6
20181015104405 36 65 0.0 2.0 0.00 0.45 0.00 82 1025.6
20181015102404 37 65 1.0 3.0 0.00 0.45 0.00 80 1025.7
20181015101405 37 350 1.0 3.0 0.00 0.45 0.00 81 1025.6
20181015094904 37 79 2.0 3.0 0.00 0.45 0.00 79 1025.6
20181015094405 38 63 1.0 2.0 0.00 0.45 0.00 78 1025.6
20181015093905 38 72 0.0 2.0 0.00 0.45 0.00 79 1025.6
20181015093405 37 71 1.0 3.0 0.00 0.45 0.00 79 1025.4
20181015091404 37 103 1.0 2.0 0.00 0.45 0.00 82 1025.5
20181015090904 37 101 0.0 2.0 0.00 0.45 0.00 80 1025.5
20181015090405 37 101 0.0 3.0 0.00 0.45 0.00 81 1025.4
20181015085904 37 101 1.0 3.0 0.00 0.45 0.00 82 1025.5
20181015085407 38 87 0.0 0.0 0.00 0.45 0.00 81 1025.4
20181015084905 38 89 0.0 0.0 0.00 0.45 0.00 79 1025.4
20181015083905 38 89 0.0 1.0 0.00 0.45 0.00 80 1025.4
20181015083405 38 89 0.0 2.0 0.00 0.45 0.00 78 1025.4
20181015082905 38 89 1.0 2.0 0.00 0.45 0.00 78 1025.4
20181015082404 38 89 1.0 2.0 0.00 0.45 0.00 78 1025.4
20181015081905 39 89 0.0 0.0 0.00 0.45 0.00 78 1025.5
20181015080904 39 89 0.0 0.0 0.00 0.45 0.00 77 1025.4
20181015080404 39 89 0.0 0.0 0.00 0.45 0.00 77 1025.4
20181015075905 39 89 0.0 0.0 0.00 0.45 0.00 78 1025.4
20181015074904 39 89 0.0 0.0 0.00 0.45 0.00 74 1025.4
20181015074404 40 89 0.0 0.0 0.00 0.45 0.00 73 1025.4
20181015073404 40 89 0.0 0.0 0.00 0.45 0.00 73 1025.4
20181015072904 40 89 0.0 0.0 0.00 0.45 0.00 74 1025.3
20181015071904 41 89 0.0 2.0 0.00 0.45 0.00 70 1025.3
20181015065904 41 55 0.0 3.0 0.00 0.45 0.03 67 1025.3
20181015064405 42 43 0.0 2.0 0.00 0.45 0.03 66 1025.5
20181015063905 42 43 0.0 2.0 0.00 0.45 0.03 65 1025.4
20181015062404 43 43 0.0 3.0 0.00 0.45 0.03 63 1025.4
20181015061904 44 43 2.0 3.0 0.00 0.45 0.03 61 1025.3
20181015061404 44 85 1.0 3.0 0.00 0.45 0.03 60 1025.4
20181015060404 46 63 0.0 3.0 0.00 0.45 0.03 58 1025.4
20181015055404 47 61 1.0 3.0 0.00 0.45 0.03 54 1025.3
20181015054905 47 61 1.0 3.0 0.00 0.45 0.03 54 1025.3
20181015054405 48 49 3.0 3.0 0.00 0.45 0.03 52 1025.2
20181015053904 50 62 3.0 3.0 0.00 0.45 0.03 47 1025.3
20181015053405 51 41 2.0 5.0 0.00 0.45 0.03 42 1025.3
20181015052904 52 57 2.0 5.0 0.00 0.45 0.03 39 1025.4
20181015052404 54 46 3.0 5.0 0.00 0.45 0.03 36 1025.3
20181015051904 56 54 2.0 8.0 0.00 0.45 0.03 35 1025.3
20181015051405 57 45 3.0 8.0 0.00 0.45 0.03 33 1025.3
20181015050904 57 65 1.0 3.0 0.00 0.45 0.03 29 1025.3
20181015050405 57 106 0.0 3.0 0.00 0.45 0.03 31 1025.3
20181015045404 57 55 2.0 3.0 0.00 0.45 0.03 31 1025.3
20181015044405 58 290 1.0 7.0 0.00 0.45 0.03 28 1025.4
20181015043904 58 56 2.0 9.0 0.00 0.45 0.03 30 1025.4
20181015043404 58 55 2.0 10.0 0.00 0.45 0.03 30 1025.5
20181015042904 57 78 2.0 10.0 0.00 0.45 0.03 31 1025.5
20181015042404 57 57 1.0 5.0 0.00 0.45 0.03 31 1025.6
20181015041905 57 59 1.0 5.0 0.00 0.45 0.03 31 1025.5
20181015041404 57 135 2.0 3.0 0.00 0.45 0.03 30 1025.6
20181015040904 57 92 1.0 3.0 0.00 0.45 0.03 32 1025.6
20181015035904 57 141 1.0 10.0 0.00 0.45 0.03 31 1025.6
20181015035405 56 57 2.0 10.0 0.00 0.45 0.03 34 1025.6
20181015034405 56 96 2.0 8.0 0.00 0.45 0.03 34 1025.7
20181015031405 57 32 1.0 3.0 0.00 0.45 0.03 33 1025.8
20181015030404 59 65 0.0 5.0 0.00 0.45 0.03 30 1025.8
20181015025904 59 71 2.0 9.0 0.00 0.45 0.03 28 1025.9
20181015024404 60 63 6.0 13.0 0.00 0.45 0.03 28 1025.8
20181015023407 60 60 5.0 12.0 0.00 0.45 0.03 26 1025.8
20181015022407 60 57 5.0 12.0 0.00 0.45 0.03 27 1025.6
20181015020407 59 100 3.0 12.0 0.00 0.45 0.03 27 1025.3
20181015015407 59 84 3.0 6.0 0.00 0.45 0.03 28 1025.3
20181015014907 60 88 1.0 10.0 0.00 0.45 0.03 28 1025.3
20181015014407 60 75 3.0 10.0 0.00 0.45 0.03 27 1025.2
20181015013407 60 49 1.0 3.0 0.00 0.45 0.03 28 1025.2
20181015012907 61 21 1.0 5.0 0.00 0.45 0.03 28 1025.1
20181015011907 62 61 2.0 8.0 0.00 0.45 0.03 25 1025.1
20181015010907 62 68 2.0 7.0 0.00 0.45 0.03 24 1025.0